Location: Henau
(47.4548°N, 9.1164°E)
Time: 00:26:12
(UTC+00:00)

H-2A R/B - Pass Details

Date: 03 March 2021
Orbit: 732 x 837 km, 98.2° (Epoch: 14 April)

Event Time Altitude Azimuth Distance (km) Brightness Sun altitude
Rises 18:00:33 0° 166° (SSE) 3,365 5.2 -9.1°
Reaches altitude 10° 18:02:54 10° 167° (SSE) 2,441 4.5 -9.5°
Maximum altitude 18:08:21 84° 255° (WSW) 849 2.3 -10.4°
Drops below altitude 10° 18:13:50 10° 345° (NNW) 2,455 4.8 -11.3°
Sets 18:16:12 0° 346° (NNW) 3,386 5.6 -11.7°
